• Em Portugal
  • Lista de países
  • Para 7 dias
  • Temperatura da água
  • Mapas de satélite
  • Mapa do tempo
  • Widgets de tempo
  • user-avatar
    Iniciar Sessão

    Previsão horária em Ilincy

    Hoje, 14 Novembro, Quarta-feira

    Tempo Temperatura Precipitação Vento Pressão Humidade
    00:00 -4°C° 0 mm 4 m/s 751 mmHg 62%
    01:00 -4°C° 0 mm 4 m/s 751 mmHg 62%
    02:00 -4°C° 0 mm 4 m/s 750 mmHg 61%
    03:00 -4°C° 0 mm 4 m/s 750 mmHg 61%
    04:00 -4°C° 0 mm 4 m/s 749 mmHg 60%
    05:00 -5°C° 0 mm 5 m/s 749 mmHg 59%
    06:00 -5°C° 0.2 mm 5 m/s 748 mmHg 63%
    07:00 -5°C° 0.2 mm 5 m/s 748 mmHg 67%
    08:00 -5°C° 0.2 mm 5 m/s 748 mmHg 70%
    09:00 -5°C° 0.9 mm 5 m/s 748 mmHg 77%
    10:00 -5°C° 0.9 mm 5 m/s 748 mmHg 83%
    11:00 -5°C° 0.9 mm 5 m/s 747 mmHg 90%
    12:00 -3°C° 0.4 mm 4 m/s 747 mmHg 90%
    13:00 -3°C° 0.4 mm 4 m/s 747 mmHg 91%
    14:00 -2°C° 0.4 mm 4 m/s 747 mmHg 91%
    15:00 -2°C° 0 mm 4 m/s 746 mmHg 92%
    16:00 0°C° 0 mm 3 m/s 746 mmHg 93%
    17:00 0°C° 0 mm 3 m/s 746 mmHg 94%
    18:00 0°C° 0 mm 3 m/s 746 mmHg 95%
    19:00 +1°C° 0 mm 3 m/s 746 mmHg 96%
    20:00 +2°C° 0 mm 2 m/s 746 mmHg 96%
    21:00 +2°C° 0 mm 2 m/s 746 mmHg 96%
    22:00 +2°C° 0 mm 2 m/s 745 mmHg 96%
    23:00 +2°C° 0 mm 2 m/s 745 mmHg 96%

    Amanhã, 15 Novembro, Quinta-feira

    Tempo Temperatura Precipitação Vento Pressão Humidade
    00:00 +2°C° 0.1 mm 2 m/s 745 mmHg 96%
    01:00 +2°C° 0.1 mm 2 m/s 745 mmHg 96%
    02:00 +2°C° 0.1 mm 2 m/s 745 mmHg 97%
    03:00 +2°C° 0.3 mm 2 m/s 745 mmHg 97%
    04:00 +2°C° 0.3 mm 2 m/s 745 mmHg 97%
    05:00 +3°C° 0.3 mm 2 m/s 745 mmHg 98%
    06:00 +3°C° 0.2 mm 2 m/s 746 mmHg 98%
    07:00 +3°C° 0.2 mm 2 m/s 746 mmHg 98%
    08:00 +3°C° 0.2 mm 2 m/s 746 mmHg 98%
    09:00 +3°C° 0.1 mm 2 m/s 747 mmHg 97%
    10:00 +2°C° 0.1 mm 3 m/s 747 mmHg 96%
    11:00 +2°C° 0.1 mm 3 m/s 748 mmHg 95%
    12:00 +2°C° 0 mm 3 m/s 748 mmHg 93%
    13:00 +2°C° 0 mm 3 m/s 748 mmHg 91%
    14:00 +2°C° 0 mm 3 m/s 748 mmHg 90%
    15:00 +2°C° 0 mm 3 m/s 749 mmHg 91%
    16:00 +2°C° 0 mm 3 m/s 749 mmHg 91%
    17:00 +2°C° 0 mm 3 m/s 750 mmHg 92%
    18:00 +2°C° 0 mm 3 m/s 750 mmHg 92%
    19:00 +2°C° 0 mm 3 m/s 751 mmHg 91%
    20:00 +1°C° 0 mm 3 m/s 751 mmHg 90%
    21:00 +1°C° 0 mm 3 m/s 752 mmHg 91%
    22:00 0°C° 0 mm 3 m/s 752 mmHg 91%
    23:00 0°C° 0 mm 3 m/s 752 mmHg 92%

    Depois de amanhã, 16 Novembro, Sexta-feira

    Tempo Temperatura Precipitação Vento Pressão Humidade
    00:00 -1°C° 0 mm 3 m/s 752 mmHg 92%
    01:00 -1°C° 0 mm 3 m/s 752 mmHg 93%
    02:00 -2°C° 0 mm 3 m/s 753 mmHg 93%
    03:00 -2°C° 0 mm 3 m/s 753 mmHg 92%
    04:00 -2°C° 0 mm 3 m/s 753 mmHg 91%
    05:00 -2°C° 0 mm 3 m/s 753 mmHg 91%
    06:00 -2°C° 0 mm 3 m/s 753 mmHg 88%
    07:00 -2°C° 0 mm 3 m/s 754 mmHg 86%
    08:00 -3°C° 0 mm 4 m/s 754 mmHg 84%
    09:00 -2°C° 0 mm 4 m/s 754 mmHg 77%
    10:00 -1°C° 0 mm 4 m/s 754 mmHg 71%
    11:00 0°C° 0 mm 4 m/s 755 mmHg 64%
    12:00 0°C° 0 mm 4 m/s 754 mmHg 63%
    13:00 0°C° 0 mm 5 m/s 754 mmHg 62%
    14:00 +1°C° 0 mm 5 m/s 754 mmHg 60%
    15:00 0°C° 0 mm 4 m/s 754 mmHg 65%
    16:00 -1°C° 0 mm 4 m/s 754 mmHg 70%
    17:00 -2°C° 0 mm 4 m/s 754 mmHg 74%
    18:00 -3°C° 0 mm 4 m/s 754 mmHg 75%
    19:00 -3°C° 0 mm 4 m/s 755 mmHg 75%
    20:00 -3°C° 0 mm 4 m/s 755 mmHg 75%
    21:00 -4°C° 0 mm 4 m/s 755 mmHg 73%
    22:00 -4°C° 0 mm 4 m/s 755 mmHg 72%
    23:00 -4°C° 0 mm 4 m/s 755 mmHg 70%

    17 Novembro, Sábado

    Tempo Temperatura Precipitação Vento Pressão Humidade
    00:00 -4°C° 0 mm 4 m/s 755 mmHg 67%
    01:00 -4°C° 0 mm 4 m/s 755 mmHg 65%
    02:00 -4°C° 0 mm 4 m/s 755 mmHg 63%
    03:00 -4°C° 0 mm 4 m/s 755 mmHg 62%
    04:00 -5°C° 0 mm 4 m/s 755 mmHg 61%
    05:00 -5°C° 0 mm 4 m/s 755 mmHg 61%
    06:00 -5°C° 0 mm 4 m/s 755 mmHg 60%
    07:00 -5°C° 0 mm 4 m/s 755 mmHg 60%
    08:00 -5°C° 0 mm 4 m/s 755 mmHg 60%
    09:00 -4°C° 0 mm 4 m/s 755 mmHg 56%
    10:00 -4°C° 0 mm 5 m/s 755 mmHg 53%
    11:00 -2°C° 0 mm 5 m/s 755 mmHg 50%
    12:00 -1°C° 0 mm 5 m/s 755 mmHg 49%
    13:00 -1°C° 0 mm 5 m/s 755 mmHg 49%
    14:00 0°C° 0 mm 4 m/s 754 mmHg 49%
    15:00 -1°C° 0 mm 4 m/s 754 mmHg 54%
    16:00 -2°C° 0 mm 4 m/s 754 mmHg 59%
    17:00 -3°C° 0 mm 4 m/s 754 mmHg 64%
    18:00 -4°C° 0 mm 3 m/s 754 mmHg 65%
    19:00 -4°C° 0 mm 3 m/s 754 mmHg 66%
    20:00 -4°C° 0 mm 3 m/s 754 mmHg 66%
    21:00 -4°C° 0 mm 3 m/s 754 mmHg 66%
    22:00 -5°C° 0 mm 3 m/s 754 mmHg 66%
    23:00 -5°C° 0 mm 3 m/s 754 mmHg 66%

    18 Novembro, Domingo

    Tempo Temperatura Precipitação Vento Pressão Humidade
    00:00 -5°C° 0 mm 3 m/s 753 mmHg 64%
    01:00 -5°C° 0 mm 3 m/s 753 mmHg 62%
    02:00 -4°C° 0 mm 2 m/s 753 mmHg 61%
    03:00 -5°C° 0 mm 3 m/s 752 mmHg 59%
    04:00 -5°C° 0 mm 3 m/s 752 mmHg 58%
    05:00 -5°C° 0 mm 3 m/s 751 mmHg 56%
    06:00 -5°C° 0 mm 3 m/s 751 mmHg 54%
    07:00 -5°C° 0 mm 3 m/s 750 mmHg 52%
    08:00 -5°C° 0 mm 3 m/s 750 mmHg 51%
    09:00 -3°C° 0 mm 4 m/s 749 mmHg 49%
    10:00 -2°C° 0 mm 4 m/s 749 mmHg 48%
    11:00 -1°C° 0 mm 4 m/s 748 mmHg 46%
    12:00 -1°C° 0.3 mm 5 m/s 748 mmHg 55%
    13:00 -1°C° 0.3 mm 5 m/s 747 mmHg 64%
    14:00 -1°C° 0.3 mm 5 m/s 746 mmHg 72%
    15:00 -2°C° 0.6 mm 5 m/s 745 mmHg 79%
    16:00 -2°C° 0.6 mm 5 m/s 745 mmHg 85%
    17:00 -2°C° 0.6 mm 5 m/s 744 mmHg 92%
    18:00 -2°C° 0.2 mm 4 m/s 744 mmHg 92%
    19:00 -2°C° 0.2 mm 4 m/s 743 mmHg 93%
    20:00 -2°C° 0.2 mm 4 m/s 743 mmHg 93%
    21:00 -2°C° 0.1 mm 4 m/s 742 mmHg 94%
    22:00 -1°C° 0.1 mm 3 m/s 742 mmHg 95%
    23:00 0°C° 0.1 mm 3 m/s 742 mmHg 95%

    19 Novembro, Segunda-feira

    Tempo Temperatura Precipitação Vento Pressão Humidade
    00:00 -1°C° 0.1 mm 3 m/s 742 mmHg 96%
    01:00 -1°C° 0.1 mm 3 m/s 741 mmHg 96%
    02:00 -1°C° 0.1 mm 3 m/s 741 mmHg 96%
    03:00 -1°C° 0 mm 3 m/s 741 mmHg 96%
    04:00 -1°C° 0 mm 3 m/s 741 mmHg 96%
    05:00 -1°C° 0 mm 2 m/s 741 mmHg 96%
    06:00 -1°C° 0 mm 2 m/s 741 mmHg 96%
    07:00 -1°C° 0 mm 2 m/s 741 mmHg 96%
    08:00 +1°C° 0 mm 1 m/s 741 mmHg 95%
    09:00 +1°C° 0.1 mm 1 m/s 741 mmHg 94%
    10:00 +2°C° 0.1 mm 1 m/s 741 mmHg 93%
    11:00 +2°C° 0.1 mm 1 m/s 741 mmHg 91%
    12:00 +2°C° 0 mm 1 m/s 741 mmHg 90%
    13:00 +2°C° 0 mm 1 m/s 741 mmHg 89%
    14:00 +3°C° 0 mm 1 m/s 741 mmHg 88%
    15:00 +1°C° 0.1 mm 2 m/s 741 mmHg 90%
    16:00 +1°C° 0.1 mm 2 m/s 741 mmHg 92%
    17:00 -1°C° 0.1 mm 2 m/s 742 mmHg 94%
    18:00 -1°C° 0.1 mm 2 m/s 742 mmHg 94%
    19:00 -1°C° 0.1 mm 2 m/s 742 mmHg 94%
    20:00 -2°C° 0.1 mm 2 m/s 742 mmHg 94%
    21:00 -2°C° 0 mm 2 m/s 742 mmHg 94%
    22:00 -3°C° 0 mm 2 m/s 743 mmHg 94%
    23:00 -3°C° 0 mm 2 m/s 743 mmHg 94%
    Mostrar mais